Location: Six Mile Lake
(44.9000°N, 79.7170°W)
Time: 10:37:15
(UTC-04:00)

Max Valier Satellite - Visible Passes

Search period start: 26 June 2022 00:00
Search period end: 06 July 2022 00:00
Orbit: 478 x 490 km, 97.2° (Epoch: 25 June)

Date Brightness Start Highest point End Pass type
(mag) Time Alt. Az. Time Alt. Az. Time Alt. Az.
26 Jun ? 22:15:12 10° WSW 22:16:41 12° W 22:18:12 10° WNW visible
27 Jun ? 21:49:08 10° SSW 21:52:02 23° W 21:54:58 10° NW visible
30 Jun ? 22:10:20 10° WSW 22:12:12 14° W 22:14:05 10° WNW visible
01 Jul ? 21:44:28 10° SSW 21:47:31 26° W 21:50:36 10° NW visible
04 Jul ? 22:05:20 10° SW 22:07:32 15° W 22:09:44 10° NW visible
05 Jul ? 21:39:38 10° SSW 21:42:48 29° W 21:46:01 10° NW visible
